Location: Newark
(30.1000°N, 109.4667°E)
Time: 09:09:00
(UTC+00:00)

Courier 1B Rocket - Pass Details

Date: 26 February 2020
Orbit: 920 x 1202 km, 28.2° (Epoch: 06 April)

Event Time Altitude Azimuth Distance (km) Brightness Sun altitude
Rises 13:00:36 0° 217° (SW) 3,657 8.4 -31.5°
Reaches altitude 10° 13:03:53 10° 203° (SSW) 2,670 7.4 -32.2°
Enters shadow 13:05:17 15° 193° (SSW) 2,319 7.0 -32.5°
